User: anonymous   Login
Location: Bangkok
(13.7500°N, 100.5170°E)
Time: 19:15:29
(UTC+07:00)
Language:

Cosmos 1898 Rocket - Orbit

View from above orbital plane
View from above orbital plane
View from above satellite
View from above satellite

Ground track
Ground track

The orbit data is extracted from the following two-line orbital elements,

1 18586U 87098B   16269.43325912  .00000131  00000-0  53174-4 0  9992
2 18586  74.0061  62.8340 0021028 184.7773 205.5801 14.36740117509347
Epoch (UTC): 25 September 2016 10:23:53
Eccentricity: 0.0021028
inclination: 74.0061°
perigee height: 754 km
apogee height: 784 km
right ascension of ascending node: 62.8340°
argument of perigee: 184.7773°
revolutions per day: 14.36740117
mean anomaly at epoch: 205.5801°
orbit number at epoch: 50934

The dashed part of the orbit path shows where the satellite is in the earth's shadow,  

DLR